カタログに戻る

DELTA 1 DEB

運用中PO
NORAD 21545·DEBRIS·🇺🇸 United States

打ち上げ Jun 12, 1975 から Vandenberg Space Force Base

Loading…

次のパス (今後24時間)

TLE

最新Source: Space-Track

元期: Sep 14, 2026, 07:15 UTC

1 21545U 75052GZ  26257.30229128  .00000146  00000-0  39088-3 0  9997
2 21545  99.7018  30.7981 0230384 224.3993 164.0424 13.22318055704667

AllMySatでDELTA 1 DEBをリアルタイム追跡

Download on the App Store